When you browse on this site, cookies collect data to enhance your experience and personalize the content and advertising you see.
Visit our Privacy Policy to learn more. By continuing to use the site, you agree to this use of cookies and data.
  • En España
  • Lista de países
  • Para 7 días
  • Temperatura del agua
  • El tiempo en el mapa
  • Informadores
  • user-avatar
    Iniciar sesión

    Tiempo cada hora Lebedin

    Hoy, 6 Junio, Sábado

    Tiempo Temperatura Precipitaciones Viento Presión Humedad
    00:00 +16°C° 0 mm 3 mps 747 mmHg 93%
    01:00 +16°C° 0 mm 3 mps 748 mmHg 94%
    02:00 +14°C° 0 mm 3 mps 748 mmHg 94%
    03:00 +14°C° 0 mm 4 mps 748 mmHg 93%
    04:00 +14°C° 0 mm 4 mps 748 mmHg 93%
    05:00 +14°C° 0 mm 4 mps 748 mmHg 93%
    06:00 +15°C° 0 mm 5 mps 748 mmHg 91%
    07:00 +16°C° 0 mm 5 mps 749 mmHg 89%
    08:00 +17°C° 0 mm 5 mps 749 mmHg 87%
    09:00 +20°C° 0 mm 5 mps 749 mmHg 84%
    10:00 +22°C° 0 mm 5 mps 749 mmHg 82%
    11:00 +23°C° 0 mm 5 mps 749 mmHg 79%
    12:00 +24°C° 0.6 mm 6 mps 749 mmHg 78%
    13:00 +24°C° 0.6 mm 6 mps 749 mmHg 77%
    14:00 +26°C° 0.6 mm 6 mps 749 mmHg 77%
    15:00 +26°C° 0.2 mm 6 mps 749 mmHg 77%
    16:00 +25°C° 0.2 mm 5 mps 749 mmHg 78%
    17:00 +25°C° 0.2 mm 4 mps 749 mmHg 79%
    18:00 +23°C° 0 mm 4 mps 749 mmHg 81%
    19:00 +21°C° 0 mm 3 mps 749 mmHg 83%
    20:00 +20°C° 0 mm 3 mps 750 mmHg 86%
    21:00 +19°C° 0 mm 3 mps 750 mmHg 86%
    22:00 +19°C° 0 mm 3 mps 750 mmHg 87%
    23:00 +18°C° 0 mm 3 mps 750 mmHg 88%

    Mañana, 7 Junio, Domingo

    Tiempo Temperatura Precipitaciones Viento Presión Humedad
    00:00 +18°C° 0 mm 3 mps 750 mmHg 88%
    01:00 +17°C° 0 mm 3 mps 751 mmHg 88%
    02:00 +16°C° 0 mm 3 mps 751 mmHg 88%
    03:00 +17°C° 0 mm 3 mps 751 mmHg 88%
    04:00 +17°C° 0 mm 2 mps 751 mmHg 88%
    05:00 +17°C° 0 mm 2 mps 751 mmHg 89%
    06:00 +18°C° 0 mm 2 mps 751 mmHg 84%
    07:00 +20°C° 0 mm 2 mps 751 mmHg 79%
    08:00 +23°C° 0 mm 2 mps 752 mmHg 75%
    09:00 +24°C° 0 mm 2 mps 752 mmHg 71%
    10:00 +25°C° 0 mm 2 mps 752 mmHg 68%
    11:00 +26°C° 0 mm 3 mps 752 mmHg 65%
    12:00 +27°C° 0 mm 2 mps 752 mmHg 63%
    13:00 +27°C° 0 mm 2 mps 752 mmHg 62%
    14:00 +28°C° 0 mm 2 mps 752 mmHg 60%
    15:00 +27°C° 0 mm 2 mps 752 mmHg 64%
    16:00 +27°C° 0 mm 2 mps 751 mmHg 68%
    17:00 +27°C° 0 mm 2 mps 751 mmHg 72%
    18:00 +25°C° 0 mm 2 mps 751 mmHg 74%
    19:00 +23°C° 0 mm 2 mps 751 mmHg 77%
    20:00 +20°C° 0 mm 2 mps 751 mmHg 79%
    21:00 +19°C° 0 mm 2 mps 751 mmHg 78%
    22:00 +19°C° 0 mm 2 mps 751 mmHg 77%
    23:00 +18°C° 0 mm 2 mps 751 mmHg 76%

    Pasado mañana, 8 Junio, Lunes

    Tiempo Temperatura Precipitaciones Viento Presión Humedad
    00:00 +18°C° 0 mm 2 mps 751 mmHg 76%
    01:00 +17°C° 0 mm 2 mps 751 mmHg 76%
    02:00 +17°C° 0 mm 2 mps 751 mmHg 76%
    03:00 +17°C° 0 mm 2 mps 751 mmHg 79%
    04:00 +17°C° 0 mm 2 mps 751 mmHg 81%
    05:00 +17°C° 0 mm 2 mps 751 mmHg 84%
    06:00 +19°C° 0 mm 3 mps 751 mmHg 82%
    07:00 +21°C° 0 mm 3 mps 751 mmHg 80%
    08:00 +24°C° 0 mm 3 mps 751 mmHg 78%
    09:00 +25°C° 0 mm 3 mps 751 mmHg 73%
    10:00 +26°C° 0 mm 3 mps 751 mmHg 69%
    11:00 +27°C° 0 mm 3 mps 751 mmHg 65%
    12:00 +28°C° 0 mm 3 mps 751 mmHg 64%
    13:00 +28°C° 0 mm 3 mps 751 mmHg 63%
    14:00 +28°C° 0 mm 3 mps 751 mmHg 62%
    15:00 +28°C° 0 mm 3 mps 750 mmHg 66%
    16:00 +28°C° 0 mm 2 mps 750 mmHg 69%
    17:00 +28°C° 0 mm 2 mps 750 mmHg 72%
    18:00 +26°C° 0 mm 2 mps 750 mmHg 76%
    19:00 +24°C° 0 mm 2 mps 750 mmHg 80%
    20:00 +23°C° 0 mm 2 mps 750 mmHg 84%
    21:00 +21°C° 0 mm 2 mps 750 mmHg 85%
    22:00 +20°C° 0 mm 2 mps 750 mmHg 86%
    23:00 +20°C° 0 mm 2 mps 750 mmHg 87%

    9 Junio, Martes

    Tiempo Temperatura Precipitaciones Viento Presión Humedad
    00:00 +19°C° 0 mm 2 mps 750 mmHg 88%
    01:00 +19°C° 0 mm 2 mps 750 mmHg 88%
    02:00 +18°C° 0 mm 2 mps 750 mmHg 88%
    03:00 +18°C° 0 mm 2 mps 750 mmHg 88%
    04:00 +19°C° 0 mm 2 mps 750 mmHg 89%
    05:00 +19°C° 0 mm 3 mps 750 mmHg 89%
    06:00 +21°C° 0 mm 3 mps 750 mmHg 85%
    07:00 +22°C° 0 mm 3 mps 750 mmHg 82%
    08:00 +25°C° 0 mm 3 mps 750 mmHg 79%
    09:00 +26°C° 0 mm 3 mps 750 mmHg 74%
    10:00 +27°C° 0 mm 3 mps 750 mmHg 69%
    11:00 +29°C° 0 mm 3 mps 750 mmHg 64%
    12:00 +29°C° 0 mm 3 mps 750 mmHg 62%
    13:00 +29°C° 0 mm 2 mps 750 mmHg 60%
    14:00 +30°C° 0 mm 2 mps 750 mmHg 58%
    15:00 +29°C° 0 mm 2 mps 750 mmHg 61%
    16:00 +29°C° 0 mm 2 mps 750 mmHg 65%
    17:00 +29°C° 0 mm 1 mps 749 mmHg 68%
    18:00 +27°C° 0 mm 2 mps 750 mmHg 71%
    19:00 +25°C° 0 mm 2 mps 750 mmHg 75%
    20:00 +23°C° 0 mm 2 mps 750 mmHg 78%
    21:00 +23°C° 0 mm 2 mps 750 mmHg 81%
    22:00 +21°C° 0 mm 2 mps 750 mmHg 84%
    23:00 +20°C° 0 mm 2 mps 750 mmHg 87%

    10 Junio, Miércoles

    Tiempo Temperatura Precipitaciones Viento Presión Humedad
    00:00 +20°C° 0 mm 2 mps 750 mmHg 88%
    01:00 +19°C° 0 mm 2 mps 750 mmHg 90%
    02:00 +19°C° 0 mm 2 mps 750 mmHg 91%
    03:00 +19°C° 0 mm 2 mps 750 mmHg 91%
    04:00 +19°C° 0 mm 2 mps 750 mmHg 91%
    05:00 +19°C° 0 mm 3 mps 750 mmHg 92%
    06:00 +21°C° 0 mm 2 mps 750 mmHg 88%
    07:00 +23°C° 0 mm 2 mps 750 mmHg 85%
    08:00 +25°C° 0 mm 2 mps 750 mmHg 81%
    09:00 +26°C° 0.3 mm 2 mps 750 mmHg 77%
    10:00 +27°C° 0.3 mm 2 mps 750 mmHg 72%
    11:00 +29°C° 0.3 mm 2 mps 750 mmHg 67%
    12:00 +29°C° 0.1 mm 2 mps 750 mmHg 63%
    13:00 +29°C° 0.1 mm 2 mps 750 mmHg 58%
    14:00 +30°C° 0.1 mm 1 mps 750 mmHg 54%
    15:00 +30°C° 0 mm 1 mps 749 mmHg 57%
    16:00 +30°C° 0 mm 1 mps 749 mmHg 61%
    17:00 +30°C° 0 mm 1 mps 749 mmHg 65%
    18:00 +28°C° 0 mm 1 mps 749 mmHg 69%
    19:00 +26°C° 0 mm 2 mps 749 mmHg 74%
    20:00 +24°C° 0 mm 2 mps 749 mmHg 79%
    21:00 +23°C° 0.1 mm 2 mps 749 mmHg 81%
    22:00 +21°C° 0.1 mm 2 mps 749 mmHg 84%
    23:00 +20°C° 0.1 mm 2 mps 749 mmHg 86%

    11 Junio, Jueves

    Tiempo Temperatura Precipitaciones Viento Presión Humedad
    00:00 +20°C° 0 mm 2 mps 749 mmHg 87%
    01:00 +20°C° 0 mm 2 mps 749 mmHg 88%
    02:00 +19°C° 0 mm 2 mps 749 mmHg 89%
    03:00 +20°C° 0 mm 2 mps 749 mmHg 90%
    04:00 +20°C° 0 mm 2 mps 749 mmHg 90%
    05:00 +20°C° 0 mm 2 mps 749 mmHg 91%
    06:00 +21°C° 0.1 mm 3 mps 749 mmHg 88%
    07:00 +24°C° 0.1 mm 3 mps 749 mmHg 85%
    08:00 +25°C° 0.1 mm 3 mps 750 mmHg 81%
    09:00 +27°C° 0.5 mm 3 mps 750 mmHg 74%
    10:00 +28°C° 0.5 mm 3 mps 750 mmHg 66%
    11:00 +30°C° 0.5 mm 2 mps 750 mmHg 58%
    12:00 +30°C° 0 mm 2 mps 749 mmHg 57%
    13:00 +30°C° 0 mm 2 mps 749 mmHg 57%
    14:00 +31°C° 0 mm 2 mps 749 mmHg 56%
    15:00 +30°C° 0.4 mm 2 mps 749 mmHg 61%
    16:00 +30°C° 0.4 mm 2 mps 749 mmHg 65%
    17:00 +29°C° 0.4 mm 2 mps 749 mmHg 70%
    18:00 +27°C° 0.3 mm 2 mps 749 mmHg 75%
    19:00 +25°C° 0.3 mm 2 mps 749 mmHg 80%
    20:00 +24°C° 0.3 mm 3 mps 749 mmHg 85%
    21:00 +22°C° 0.2 mm 3 mps 749 mmHg 86%
    22:00 +21°C° 0.2 mm 2 mps 749 mmHg 88%
    23:00 +21°C° 0.2 mm 2 mps 749 mmHg 89%
    Mostrar más